Powrót do katalogu

STARLINK-37528

AktywnyŁącznośćSSO
NORAD 68904·PAYLOAD·🇺🇸 United States

Wystrzelony Apr 30, 2026 z Vandenberg Space Force Base

Loading…

Następne Przeloty (najbliższe 24 godziny)

TLE

ŚwieżeSource: CelesTrak SupGP

Epoka: Sep 15, 2026, 04:18 UTC

1 68904C 26097K   26258.17965278 -.00055054  00000+0 -17086-2 0  2581
2 68904  97.2855  92.4277 0001790  93.3463  79.6758 15.33473621    19

Śledź STARLINK-37528 w czasie rzeczywistym z AllMySat

Download on the App Store